Tracking 19709 objects as of 17-Jun-2019
HD Live streaming from Space Station
objects crossing your sky now

SL-14 DEB

Track SL-14 DEB now!
10-day predictions


NORAD ID: 39970
Int'l Code: 1987-068CW
Perigee: 871.0 km
Apogee: 876.8 km
Inclination: 82.5 °
Period: 102.3 minutes
Semi major axis: 7244 km
RCS: 0.0124 m2 (small)
Launch date: August 18, 1987
Source: Commonwealth of Independent States (former USSR) (CIS)
Launch site: PLESETSK MISSILE AND SPACE COMPLEX (PKMTR)

Note: This is SATELLITE DEBRIS
aabbcc
Your satellite tracking list
Your tracking list is empty




NASA's NSSDC Master Catalog

Two Line Element Set (TLE):
1 39970U 87068CW  19167.29521578 +.00000371 +00000-0 +20996-3 0  9990
2 39970 082.5420 014.1874 0003989 309.3335 050.7484 14.07844535258320
Source of the keplerian elements: AFSPC